RH
98 98 98 97 96 95 95 95 96 96 97 97 97 98 96 98 96 72 86 82 64 79 61 61 54 55 53 50 74 70 70 79 94 100 100 98 100 72 64 49 64 66 98 99 95 99 97 40 43 77 64 57 59 67
97 97 98 98 97 96 95 95 96 97 96 97 97 98 98 98 94 84 66 80 78 68 68 76 73 59 54 42 50 71 60 63 69 91 99 100 100 100 98 82 47 68 57 60 61 64 42 42 47 47 51 62 77 90
97 97 99 100 98 97 96 96 97 98 98 98 97 98 97 96 94 84 74 84 75 98 74 68 66 65 64 57 51 68 78 58 64 66 87 100 100 81 100 88 93 48 47 69 71 48 43 48 47 55 66 87 88 73
95 96 97 99 99 98 97 97 98 98 99 99 99 99 98 95 94 87 81 80 80 91 100 79 64 64 60 64 61 58 62 69 69 74 100 100 100 62 99 70 70 53 54 60 64 55 53 49 72 76 85 84 64 51
94 95 95 96 98 99 97 97 97 98 99 99 99 99 98 96 95 88 86 85 80 78 99 96 73 67 60 62 66 63 64 72 92 100 100 99 89 94 100 98 96 52 57 75 84 62 78 91 82 90 80 53 47 42
94 94 94 94 96 98 99 98 97 97 100 99 99 99 99 96 96 78 80 82 82 76 99 100 75 73 66 65 70 72 68 84 90 94 99 94 73 91 100 99 62 51 51 60 77 67 71 87 79 56 52 40 31 32
93 94 94 94 94 96 98 99 98 98 99 99 99 99 99 98 88 84 77 83 91 79 100 100 96 77 72 72 77 72 84 84 84 98 100 99 91 91 100 100 66 64 54 59 63 64 78 75 65 40 34 33 36 30
92 92 92 94 94 95 96 98 99 99 99 99 99 99 99 97 97 96 91 96 90 90 98 100 100 99 75 97 100 83 96 97 99 98 99 100 96 100 100 76 62 60 63 57 51 48 49 42 38 35 32 30 30 28
92 92 92 92 94 94 95 97 99 99 99 99 99 99 97 99 100 99 94 92 87 85 100 100 100 100 82 95 96 96 91 100 93 100 100 98 100 99 83 70 66 71 68 53 46 40 36 38 35 30 27 28 35 40
92 94 92 92 93 93 95 96 99 99 99 98 98 99 100 100 98 97 96 100 100 100 99 100 96 100 79 99 100 100 100 100 100 96 71 100 99 70 66 62 66 61 48 45 50 49 41 39 33 35 36 39 44 44
91 94 92 93 93 96 97 98 99 98 97 99 100 100 100 98 94 97 100 100 100 100 100 99 100 100 92 99 100 100 100 100 99 86 94 93 85 68 54 50 47 48 44 41 35 34 31 36 39 46 51 52 60 64
92 93 91 93 93 96 97 96 95 97 99 98 98 97 97 96 100 100 100 100 100 100 100 100 100 98 100 97 100 100 100 100 94 73 98 89 65 52 50 54 55 47 36 31 31 34 37 43 49 57 59 60 69 79
88 94 91 92 95 95 93 96 96 97 95 97 96 100 99 100 100 100 100 100 100 100 94 100 100 100 99 96 100 100 100 99 81 95 81 65 58 54 52 40 41 38 42 52 36 38 44 51 60 72 82 82 94 85
84 92 93 93 94 91 94 95 95 94 88 99 100 100 100 99 99 88 87 99 99 100 100 100 100 99 100 100 100 100 92 85 95 91 90 68 60 49 38 44 41 35 84 66 54 56 79 91 89 93 93 95 95 92
86 93 93 95 92 96 96 93 90 81 84 98 97 99 98 98 100 100 100 100 99 99 100 100 99 85 100 100 94 96 99 91 79 79 71 65 52 46 52 56 42 67 94 79 55 77 98 94 93 89 91 95 91 97
92 96 97 93 86 89 91 89 86 86 86 81 93 98 98 100 100 100 100 100 99 100 98 92 98 100 98 95 98 96 85 78 77 84 74 53 57 60 59 58 56 53 62 59 61 66 76 94 96 80 89 95 97 100
96 99 94 91 88 84 80 83 75 80 94 99 97 97 99 100 100 100 100 100 99 100 100 90 97 91 86 90 91 78 86 83 81 73 57 56 57 53 51 61 83 74 64 64 64 70 73 85 97 96 95 70 82 88
98 96 91 85 81 89 88 80 81 76 86 88 89 98 97 98 100 100 100 98 99 87 78 83 71 87 85 84 79 80 75 73 64 58 49 52 56 57 54 55 54 55 59 64 86 80 80 96 87 66 67 66 76 81
89 94 86 89 85 92 99 99 81 78 86 87 92 93 94 99 96 95 97 97 86 76 81 82 91 78 75 70 83 89 87 79 63 51 51 52 59 62 63 59 62 61 62 66 69 65 62 71 74 70 69 68 76 79
96 93 85 81 80 84 99 92 75 70 76 81 87 87 90 93 97 100 100 99 89 93 96 92 83 77 75 64 60 65 57 56 58 68 59 52 56 59 60 59 55 54 58 62 69 84 74 71 65 68 73 75 91 90
93 98 91 85 79 73 77 81 83 78 78 78 83 79 94 93 96 98 98 92 98 89 80 73 92 76 68 61 58 58 60 60 59 68 68 62 54 58 60 58 59 62 71 76 91 82 91 90 78 78 100 100 96 100
98 94 100 94 89 93 82 81 77 78 77 86 86 80 95 99 98 96 89 91 84 74 68 71 60 59 60 64 58 62 60 60 60 64 77 73 72 67 66 66 73 89 87 98 86 100 97 82 88 95 100 100 95 97
93 96 99 99 93 92 96 78 85 77 84 90 85 87 90 94 90 85 90 72 70 59 57 59 58 61 60 56 60 60 60 63 62 62 71 70 67 77 83 77 84 98 98 84 77 90 98 88 93 100 100 100 96 92
80 96 95 89 85 97 91 93 84 88 89 87 84 78 81 89 88 92 91 86 70 66 66 64 61 58 57 67 60 51 52 60 62 65 70 74 73 69 68 73 81 90 85 78 90 98 99 100 98 98 100 98 96 97
89 92 83 94 89 90 88 86 88 84 88 94 94 91 92 90 95 97 91 74 81 86 75 62 59 57 59 63 60 58 65 60 64 66 70 72 87 90 84 74 77 82 89 100 100 100 100 100 100 100 94 97 90 91
93 91 82 87 92 80 86 90 88 89 88 95 95 87 92 91 87 77 64 79 94 84 99 99 94 65 55 52 56 55 57 66 71 78 71 72 81 98 99 96 91 88 94 99 100 98 91 87 89 86 85 84 82 87
93 87 85 73 75 79 92 92 87 89 98 99 88 95 90 85 78 65 62 77 75 86 81 81 82 75 74 71 70 72 77 79 90 79 78 86 89 90 95 96 95 94 91 99 100 100 96 92 92 90 89 84 86 87
87 84 93 94 92 83 90 89 91 96 84 73 81 90 84 77 65 81 83 79 84 81 78 78 79 79 80 85 84 88 88 88 87 93 96 92 92 95 95 95 95 94 96 99 100 99 98 96 91 90 91 89 88 88
93 90 88 97 96 95 91 84 82 73 65 76 82 75 78 75 90 86 80 80 79 82 84 86 85 86 82 80 81 86 91 92 93 92 88 91 98 95 92 94 93 92 93 93 86 93 94 93 93 93 93 91 91 89
92 91 94 97 99 94 89 86 92 92 75 79 75 73 79 88 87 78 81 83 87 92 91 89 89 90 92 91 90 85 90 91 92 94 94 94 94 94 94 94 94 92 92 92 90 85 83 87 85 86 87 89 90 89
89 92 92 92 93 93 95 95 94 93 92 89 93 89 84 91 89 84 84 85 84 86 88 89 87 86 88 88 90 90 91 91 92 92 92 93 93 93 93 93 93 92 92 91 91 90 90 89 90 89 89 89 89 88
93 91 94 99 90 91 91 96 97 96 92 87 86 91 94 92 93 87 87 86 85 89 90 89 91 91 88 89 90 90 90 90 89 91 91 92 93 93 93 92 92 91 91 90 90 90 89 89 90 90 90 89 90 89
94 94 93 96 94 85 88 83 73 79 82 84 92 93 92 90 92 88 78 83 89 90 91 90 90 90 88 88 89 90 87 88 88 88 89 90 91 93 93 92 92 91 89 90 90 89 88 87 89 89 90 90 90 89
Wind_Speed
12 7 10 10 11 10 9 8 7 6 5 4 4 6 8 10 9 2 3 4 2 3 4 1 3 5 4 4 5 7 5 2 2 3 3 3 3 4 3 1 4 4 5 4 3 4 7 4 4 5 10 10 11 6
12 8 5 8 9 10 10 9 7 7 6 4 3 5 7 10 9 3 3 2 3 4 4 2 3 4 4 2 5 5 2 5 5 4 2 3 3 1 2 4 4 6 6 3 7 7 5 6 11 10 10 10 3 1
10 9 8 4 8 9 10 10 9 7 6 5 4 3 6 8 9 5 3 2 2 3 3 3 3 3 2 3 2 4 1 3 5 4 4 2 3 6 5 6 6 5 7 4 5 11 14 10 13 7 5 4 2 6
11 10 9 6 4 8 10 11 10 9 7 6 5 3 4 7 7 4 3 1 4 4 5 3 3 2 4 3 1 3 7 7 6 2 3 3 3 6 4 6 8 6 3 8 12 15 15 5 8 6 3 2 5 5
11 11 11 9 5 5 9 10 11 10 9 8 7 6 4 3 5 5 4 3 2 1 4 1 1 3 5 2 3 5 10 7 3 3 3 4 2 3 1 1 5 9 13 7 7 9 5 4 4 4 1 2 4 6
10 9 9 10 8 3 7 10 11 11 11 11 9 8 7 4 2 1 1 2 3 2 4 2 3 1 4 2 5 5 5 3 3 4 3 3 2 4 3 5 5 8 9 8 5 6 4 6 6 4 1 4 6 9
9 8 9 9 10 9 3 8 12 12 13 12 11 9 8 4 1 0 1 2 2 1 4 1 2 2 1 2 3 2 2 1 2 2 3 3 4 5 3 3 4 3 3 3 2 7 6 5 3 1 3 7 9 12
7 7 8 8 8 8 7 2 11 15 16 14 13 10 8 11 8 1 2 2 2 5 3 3 2 1 1 2 2 1 2 0 1 1 1 2 2 1 3 1 2 3 8 8 9 9 9 5 2 4 8 10 13 14
5 6 7 8 8 8 6 6 7 14 18 16 14 15 4 0 2 2 6 6 4 1 3 2 5 4 4 2 2 2 0 1 1 1 1 1 3 6 3 3 1 4 3 9 7 5 3 3 6 8 12 13 14 14
4 5 7 8 8 8 7 5 3 11 14 20 4 3 1 2 7 9 2 1 3 2 2 3 1 4 4 3 2 3 0 1 3 1 2 2 2 2 4 6 8 11 11 6 3 0 5 7 8 10 11 11 12 14
5 5 7 6 8 7 6 10 9 14 11 3 2 3 1 2 1 3 2 2 2 0 1 1 2 3 2 3 3 1 2 2 2 2 3 2 4 6 10 9 7 5 5 4 3 1 5 7 10 11 12 12 11 12
6 5 5 4 7 4 6 6 11 4 2 5 5 5 2 3 2 4 4 4 3 3 3 3 2 2 2 1 3 1 2 2 3 3 3 4 3 13 12 9 6 6 3 1 3 6 7 8 8 9 11 12 11 11
8 7 6 4 2 4 7 9 12 11 4 4 5 3 2 1 2 6 6 2 4 4 4 3 3 2 2 2 3 1 3 2 1 3 4 1 8 10 10 8 7 4 1 4 7 8 9 9 9 7 9 10 9 11
4 6 7 4 3 2 8 13 9 6 4 3 2 4 0 3 1 0 3 4 2 3 5 5 3 2 2 3 1 3 3 2 4 5 5 4 10 10 8 5 3 2 2 5 9 9 6 7 9 8 8 8 8 11
3 2 6 3 3 7 12 7 6 3 2 3 2 3 2 2 3 3 3 2 2 3 3 4 4 1 2 3 1 3 5 5 5 3 1 6 8 6 5 5 5 5 4 6 8 7 6 8 8 10 8 7 9 10
2 1 4 6 7 12 9 3 3 2 3 2 3 3 1 2 2 2 2 2 1 2 2 2 3 3 3 2 4 5 3 6 2 2 4 6 5 4 4 5 7 7 8 9 8 9 9 8 8 11 11 9 8 7
8 2 10 9 11 13 9 2 1 5 3 2 2 2 2 1 3 2 1 2 2 2 2 2 5 2 4 3 4 4 4 1 1 4 3 4 5 6 6 6 6 7 8 9 9 9 9 7 6 8 11 12 9 10
2 3 14 14 6 4 3 4 3 3 4 2 1 2 2 2 3 3 2 2 2 2 3 1 4 4 4 4 3 2 4 2 2 2 2 3 5 8 7 10 11 10 10 9 7 9 8 6 8 8 10 11 10 10
6 6 15 11 6 5 2 3 2 3 3 2 3 2 2 2 3 2 1 1 2 2 4 2 2 3 3 3 3 2 2 2 3 3 4 5 6 8 9 10 10 11 11 10 9 8 8 8 8 8 8 9 9 10
10 11 12 8 9 3 4 2 1 3 3 3 3 3 2 2 2 1 2 2 2 1 2 3 3 3 3 3 3 2 2 1 2 6 7 5 6 8 9 9 9 10 9 10 9 7 6 6 6 7 7 8 8 10
9 3 11 5 3 6 4 2 3 2 3 2 3 1 3 1 1 1 2 1 0 2 3 5 4 4 3 1 1 2 4 5 6 5 7 7 6 6 8 8 9 8 8 8 7 7 5 6 7 6 5 6 7 9
3 8 3 5 4 3 4 3 2 2 1 3 3 1 2 2 2 2 1 3 3 4 5 3 4 4 4 5 5 6 7 5 7 6 7 7 6 5 6 6 7 7 8 7 8 6 6 6 5 6 6 7 9 8
11 3 4 3 5 3 3 1 2 2 3 4 3 3 3 2 2 1 2 3 4 5 5 5 5 5 5 5 4 6 6 7 6 6 5 5 6 6 7 7 6 7 8 9 6 6 6 5 6 6 6 7 7 8
6 6 4 3 3 4 1 2 2 3 2 1 2 2 2 1 1 1 3 3 4 2 3 5 3 3 3 3 4 5 5 6 5 4 5 5 7 8 8 8 7 7 8 7 6 5 5 4 6 7 6 8 9 9
5 4 3 5 2 4 4 4 3 2 3 3 3 3 3 2 3 4 4 4 2 3 2 2 2 3 3 3 4 5 3 5 5 7 5 6 7 7 8 8 7 6 4 5 5 4 4 4 5 7 8 8 11 12
7 4 3 3 2 3 4 4 4 4 3 4 4 1 2 3 4 5 3 2 2 3 3 4 4 3 4 4 6 7 6 2 4 7 9 5 4 6 8 8 8 6 2 3 3 5 6 7 8 10 9 9 10 11
4 2 3 2 3 5 4 3 2 2 4 5 3 5 4 4 5 2 2 5 5 6 7 6 6 6 7 9 9 8 7 7 7 9 8 5 6 6 6 7 7 2 4 4 4 5 7 8 8 8 9 9 7 8
3 3 6 5 3 1 4 3 4 6 5 4 5 6 5 6 1 4 5 6 7 7 6 6 6 7 8 8 9 8 8 8 10 8 6 6 4 2 2 2 2 5 4 4 5 6 6 6 8 9 9 8 7 7
3 3 4 4 3 1 3 6 5 4 4 5 4 4 2 4 4 5 5 7 7 7 8 9 9 9 8 8 7 7 7 8 10 12 13 9 4 4 6 5 5 5 5 5 6 5 7 6 6 6 6 5 5 5
3 1 3 4 4 4 1 4 1 1 2 1 1 2 4 4 5 5 6 7 8 8 7 7 7 8 9 9 9 8 7 8 8 8 7 7 7 7 7 7 7 7 6 6 6 6 5 4 4 3 4 4 5 4
1 1 1 2 3 1 1 2 2 2 2 2 1 3 3 5 4 6 9 7 6 6 7 8 8 8 9 9 9 9 7 8 11 11 10 6 6 7 7 7 7 7 7 6 6 5 5 3 4 5 6 6 7 6
2 3 2 4 2 1 2 2 1 2 1 2 2 2 4 3 4 3 6 6 7 8 9 8 8 8 8 6 6 5 6 6 8 8 11 8 8 8 8 7 7 7 7 6 4 4 5 5 5 5 5 7 7 7
1 1 1 3 3 1 2 2 2 3 1 1 3 3 3 3 4 3 2 5 5 6 8 8 8 7 7 5 6 7 8 7 9 9 11 11 10 9 7 6 7 6 6 5 4 4 5 6 6 6 6 6 7 7
Wind_Direction
50 147 161 164 167 170 171 170 167 163 154 113 49 22 14 12 4 1 84 15 354 84 124 203 152 142 139 171 151 135 152 134 89 103 160 200 214 202 224 230 197 207 178 198 181 260 266 158 237 318 313 301 316 332
46 35 139 166 172 173 173 174 175 174 169 141 82 28 22 19 4 338 95 41 346 69 80 19 39 20 9 95 129 174 20 149 156 112 186 134 192 171 241 241 192 243 206 248 202 237 284 255 298 313 314 310 344 194
42 56 51 157 174 177 177 174 176 176 174 166 140 60 27 17 15 27 97 20 65 91 92 181 157 41 352 15 350 141 207 143 169 23 141 150 196 170 189 230 261 242 221 231 283 257 280 296 311 23 44 73 265 261
50 53 62 52 179 190 187 176 176 176 172 164 155 122 43 23 17 33 68 58 65 86 114 138 328 122 351 314 276 23 119 104 98 127 119 148 183 205 211 269 248 254 231 268 265 284 286 294 45 80 127 147 253 289
48 40 43 43 37 196 196 184 178 175 164 163 156 145 125 61 42 67 73 50 44 321 158 161 264 55 12 326 166 144 148 134 138 135 147 207 167 136 155 15 249 242 262 261 256 330 324 111 115 107 165 245 326 315
50 39 35 33 35 38 206 193 187 176 166 164 167 160 158 160 30 58 127 106 22 26 103 134 42 36 28 82 161 164 175 123 146 164 191 214 210 178 184 210 272 281 277 328 309 322 71 100 124 170 274 325 321 300
52 40 33 27 14 27 23 207 191 174 166 169 165 164 177 180 146 264 354 40 356 51 85 93 236 75 24 108 61 126 62 163 220 187 208 198 186 165 182 225 251 268 317 321 344 157 102 145 166 141 299 305 309 304
53 40 32 22 15 8 21 264 199 181 172 173 168 159 117 102 105 178 62 20 348 91 76 149 225 288 223 125 122 350 126 319 17 180 41 193 125 112 247 146 60 74 106 85 75 76 90 131 226 317 330 319 317 317
43 17 10 12 5 2 359 14 217 187 177 170 142 129 111 136 146 159 116 83 59 62 196 153 163 210 151 86 83 112 144 143 94 233 207 222 170 213 183 154 133 152 167 136 110 103 93 12 339 332 327 320 315 316
35 10 2 5 5 359 346 2 252 186 172 136 118 110 138 204 122 136 21 119 24 344 47 185 116 144 191 161 130 135 17 142 207 150 229 212 238 124 158 129 119 126 135 158 176 335 354 330 317 312 313 318 319 319
22 6 1 3 4 3 31 52 60 131 131 77 97 94 85 129 123 37 134 173 158 151 188 138 142 140 314 143 119 15 162 159 213 117 252 215 228 181 155 147 136 124 137 106 66 344 306 307 313 315 315 319 311 306
24 356 347 348 17 46 84 50 27 69 62 100 104 90 58 50 59 129 181 146 202 188 169 160 132 104 78 62 100 139 152 185 217 125 224 237 154 151 160 157 163 162 136 346 337 316 314 308 307 311 307 306 305 302
34 343 324 319 8 86 94 76 92 77 46 38 51 79 161 86 168 195 167 130 148 165 172 160 101 101 148 63 80 125 189 197 134 202 229 240 150 165 167 167 162 154 8 317 309 303 307 302 310 297 295 289 287 296
61 333 298 296 251 183 113 112 99 85 62 69 94 110 329 139 219 84 93 103 89 128 129 97 75 56 48 80 114 185 88 211 229 233 224 162 172 166 164 152 170 289 326 289 295 294 282 283 286 281 262 267 277 287
12 307 265 243 183 111 129 82 62 45 71 72 352 89 72 95 60 53 42 82 49 106 107 104 90 91 103 120 144 132 172 229 234 240 108 153 153 161 158 195 258 278 265 274 292 285 266 270 274 284 281 274 279 278
349 160 221 179 152 105 98 85 69 114 54 89 92 94 67 87 72 56 66 87 51 89 67 49 113 162 132 138 178 205 208 227 169 166 145 141 153 170 203 247 264 282 286 285 281 275 277 270 271 291 298 291 282 279
151 234 179 141 114 79 60 141 152 60 96 82 92 37 61 42 130 122 136 124 114 123 153 172 187 141 123 176 214 198 224 318 171 150 144 163 183 206 254 268 261 266 274 276 277 277 278 283 284 286 296 318 321 310
75 199 149 143 131 80 55 27 65 56 76 68 69 119 52 28 105 106 97 107 144 155 177 156 135 193 202 203 206 210 225 234 206 158 157 200 235 253 273 287 290 285 279 276 268 280 283 272 276 292 309 309 309 301
160 197 157 131 114 98 78 66 321 97 67 86 93 60 43 69 50 33 56 68 41 80 126 145 191 213 213 217 225 159 199 216 221 238 262 280 275 276 278 281 279 277 273 274 278 277 284 278 278 299 303 304 305 307
162 148 122 100 69 131 131 93 313 94 136 110 123 131 84 85 106 103 127 176 159 166 189 218 226 210 209 197 204 216 176 211 265 281 280 272 260 268 263 269 275 283 285 284 275 253 269 271 277 293 295 304 298 297
84 45 35 57 53 48 67 74 79 53 124 115 114 136 89 114 105 135 131 24 153 224 242 231 231 241 213 248 238 248 254 247 255 250 277 288 294 287 282 283 283 281 275 270 266 273 256 271 293 297 292 287 287 285
103 95 91 38 81 62 75 32 62 80 87 90 135 143 133 166 161 169 154 201 229 238 224 228 238 246 239 239 245 223 247 253 250 262 261 268 267 269 266 268 268 263 263 257 262 258 264 285 287 279 279 287 289 291
105 73 64 69 92 52 96 259 134 43 144 135 173 162 156 149 104 214 235 239 257 243 243 252 261 260 261 282 272 267 249 244 253 245 247 252 264 269 272 275 267 261 271 269 258 256 270 287 283 273 292 284 296 298
67 57 68 80 83 105 135 90 88 98 106 143 150 157 145 96 117 229 257 245 247 253 226 233 234 266 241 229 251 262 254 216 231 244 252 271 283 285 283 282 283 268 263 271 256 267 276 277 282 284 289 297 295 294
96 33 66 76 80 122 113 118 113 157 144 157 157 200 156 164 208 217 237 255 231 249 251 202 206 228 274 293 290 287 238 219 242 267 272 260 274 287 289 292 293 289 287 248 260 268 285 281 292 296 299 301 306 317
76 25 41 122 112 115 133 126 159 155 146 171 213 69 208 209 232 241 217 329 345 7 17 3 350 322 298 280 299 308 313 296 265 272 285 288 280 286 288 295 304 302 196 263 277 284 299 305 300 303 301 313 319 323
104 125 103 35 91 119 112 96 105 165 169 193 175 173 185 218 235 241 58 29 5 7 345 350 344 334 326 322 322 318 310 298 270 278 299 283 267 256 253 272 286 340 312 289 280 284 297 298 297 304 310 307 314 320
93 143 152 150 108 38 128 153 170 195 192 170 161 188 204 211 198 48 28 1 342 335 338 356 7 357 330 333 325 324 325 323 306 283 253 252 242 185 21 337 336 334 324 334 317 300 300 311 312 305 305 307 318 332
83 119 103 97 71 166 230 200 212 210 164 177 195 202 208 65 36 0 2 352 351 1 7 356 353 346 340 340 337 346 353 350 338 327 313 295 236 70 6 354 347 350 341 326 326 335 343 329 329 326 329 332 340 351
96 198 101 143 183 222 248 193 281 74 204 266 323 140 121 97 53 28 21 19 19 15 1 352 347 354 349 344 343 347 41 22 15 2 346 3 358 343 350 352 348 344 334 328 322 328 348 344 344 2 13 21 13 24
37 138 105 183 249 251 19 348 262 231 237 241 34 264 40 119 123 49 29 17 18 18 15 12 11 14 15 17 6 356 357 15 1 -0 359 346 347 348 347 339 335 328 325 331 336 342 345 357 21 34 44 48 42 35
180 205 221 221 227 91 348 326 327 276 211 241 140 113 134 120 96 73 17 359 15 16 10 3 356 347 358 5 10 14 353 343 349 352 353 344 339 337 332 332 331 331 330 335 352 9 22 39 49 49 58 50 42 36
161 213 223 273 271 233 61 314 27 317 226 36 67 65 55 55 96 70 41 21 11 11 356 344 331 320 314 339 4 356 349 347 346 348 351 346 344 338 330 336 330 331 331 350 15 26 43 58 63 61 57 50 45 38